Stations météo

Publicité
Le Talut, France (7207): Température de l'air & dewpoint: 16.07.2019 18:00:00 - 22.07.2019 18:00:00 (CEST)Le Talut, France (7207): Vitesse du vent & gusts: 16.07.2019 18:00:00 - 22.07.2019 18:00:00 (CEST)Le Talut, France (7207): Direction du vent: 16.07.2019 18:00:00 - 22.07.2019 18:00:00 (CEST)Le Talut, France (7207): reduced air pressure: 16.07.2019 18:00:00 - 22.07.2019 18:00:00 (CEST)Le Talut, France (7207): visibility: 16.07.2019 18:00:00 - 22.07.2019 18:00:00 (CEST)Le Talut, France (7207): Quantités de précipitations: 16.07.2019 18:00:00 - 22.07.2019 18:00:00 (CEST)
Date & Time tt [°C] td [°C] ff [km/h] ff [knt] fx [km/h] fx [knt] dd ppp [hPa] vv [km] rr [mm]
22.07.2019 18:00:00 23,2 17,0 13 7 22 12 W 1021,6 - 0,0
22.07.2019 17:00:00 23,5 15,8 10 6 16 9 W 1022,0 25 0,0
22.07.2019 16:00:00 25,0 15,0 10 5 26 14 SSE 1022,5 - 0,0
22.07.2019 15:00:00 22,5 17,0 14 8 25 14 W 1023,0 - 0,0
22.07.2019 14:00:00 22,5 17,4 9 5 18 10 WSW 1023,7 - 0,0
22.07.2019 13:00:00 21,8 16,3 7 4 15 8 SW 1023,9 - 0,0
22.07.2019 12:00:00 21,5 16,5 8 4 15 8 WSW 1024,3 - 0,0
22.07.2019 11:00:00 22,0 16,5 5 3 16 9 SE 1024,4 25 0,0
22.07.2019 10:00:00 20,2 16,6 8 4 17 9 N 1024,6 - 0,0
22.07.2019 09:00:00 19,3 17,1 9 5 15 8 N 1024,4 - 0,0
22.07.2019 08:00:00 17,8 16,8 9 5 13 7 NNE 1024,4 - 0,0
22.07.2019 07:00:00 16,7 16,1 10 6 12 7 NNE 1024,3 - 0,0
22.07.2019 06:00:00 16,5 15,7 10 5 12 7 NNE 1024,1 - 0,0
22.07.2019 05:00:00 16,0 14,9 10 5 14 8 N 1024,3 - 0,0
22.07.2019 04:00:00 16,5 15,4 12 6 14 8 N 1024,4 - 0,0
22.07.2019 03:00:00 17,0 15,2 9 5 13 7 NNW 1024,7 - 0,0
22.07.2019 02:00:00 18,7 15,9 7 4 15 8 WNW 1024,8 - 0,0
22.07.2019 01:00:00 18,7 15,8 7 4 13 7 WNW 1024,8 - 0,0
22.07.2019 00:00:00 18,4 15,5 9 5 13 7 NW 1024,9 - 0,0
21.07.2019 23:00:00 19,0 15,7 8 4 14 8 NW 1025,0 - 0,0
21.07.2019 22:00:00 19,8 15,9 10 5 16 9 W 1024,5 - 0,0
21.07.2019 21:00:00 21,5 16,7 9 5 15 8 W 1024,2 - 0,0
21.07.2019 20:00:00 21,6 16,3 10 5 13 7 W 1023,9 - 0,0
21.07.2019 19:00:00 22,1 16,6 6 4 13 7 SW 1023,8 - 0,0
21.07.2019 18:00:00 21,9 16,6 8 4 14 8 SW 1023,7 - 0,0
21.07.2019 17:00:00 22,5 17,6 10 5 14 8 S 1024,0 25 0,0
21.07.2019 16:00:00 22,0 17,4 9 5 16 9 SSE 1024,0 - 0,0
21.07.2019 15:00:00 21,5 16,7 10 5 16 9 SSE 1024,1 - 0,0
21.07.2019 14:00:00 21,9 17,7 12 6 16 8 SSE 1023,9 - 0,0
21.07.2019 13:00:00 21,0 17,0 12 7 18 10 SSE 1023,9 - 0,0
21.07.2019 12:00:00 20,6 16,8 10 6 15 8 SSE 1023,4 - 0,0
21.07.2019 11:00:00 20,3 16,9 6 3 13 7 ESE 1023,3 - 0,0
21.07.2019 10:00:00 20,9 16,3 3 1 6 4 SW 1023,1 - 0,0
21.07.2019 09:00:00 20,0 16,4 0 0 6 3 N 1022,7 - 0,0
21.07.2019 08:00:00 18,5 16,3 4 2 6 3 NW 1022,2 22 0,0
21.07.2019 07:00:00 16,8 15,7 5 3 9 5 NW 1021,7 - 0,0
21.07.2019 06:00:00 17,4 15,4 5 3 16 9 NW 1021,2 - 0,0
21.07.2019 05:00:00 18,2 15,8 10 6 18 10 W 1020,9 - 0,0
21.07.2019 04:00:00 18,1 15,7 11 6 17 9 W 1021,2 - 0,0
21.07.2019 03:00:00 18,4 16,0 9 5 16 9 W 1020,9 - 0,0
21.07.2019 02:00:00 18,5 15,9 11 6 22 12 W 1020,8 - 0,0
21.07.2019 01:00:00 18,8 16,0 13 7 31 17 W 1020,6 - 0,0
21.07.2019 00:00:00 18,9 15,8 18 10 33 18 W 1020,4 - 0,0
20.07.2019 23:00:00 18,9 15,6 16 9 30 16 W 1019,8 - 0,0
20.07.2019 22:00:00 19,0 15,7 17 9 36 19 W 1018,9 - 0,0
20.07.2019 21:00:00 19,5 15,8 21 12 40 22 W 1018,5 - 0,0
20.07.2019 20:00:00 20,5 16,1 22 12 41 22 W 1017,9 - 0,0
20.07.2019 19:00:00 20,3 15,7 26 14 40 22 W 1017,5 - 0,0
20.07.2019 18:00:00 21,3 16,0 24 13 41 22 W 1017,0 - 0,0
20.07.2019 17:00:00 21,8 16,3 27 14 45 24 W 1016,7 20 0,0
20.07.2019 16:00:00 20,6 15,6 22 12 42 23 W 1016,2 - 0,0
20.07.2019 15:00:00 20,9 16,1 22 12 37 20 W 1015,7 - 0,0
20.07.2019 14:00:00 20,4 17,0 16 9 30 16 W 1015,3 - 0,0
20.07.2019 13:00:00 20,9 16,9 17 9 32 17 W 1014,6 - 0,0
20.07.2019 12:00:00 19,6 17,2 20 11 41 22 WNW 1014,0 - 0,0
20.07.2019 11:00:00 20,2 17,4 27 14 41 22 WSW 1013,2 20 0,0
20.07.2019 10:00:00 20,1 17,5 21 12 41 22 WSW 1012,8 - 0,0
20.07.2019 09:00:00 18,9 17,6 26 14 50 27 WSW 1012,3 - 0,6
20.07.2019 08:00:00 19,3 18,1 29 16 55 30 WSW 1011,6 - 0,0
20.07.2019 07:00:00 19,2 17,7 22 12 53 29 SW 1011,3 - 0,0
20.07.2019 06:00:00 19,5 17,5 27 15 49 26 WSW 1011,2 - 0,0
20.07.2019 05:00:00 19,4 17,4 27 14 42 23 WSW 1011,3 - 0,0
20.07.2019 04:00:00 19,3 17,6 24 13 39 21 WSW 1011,5 - 0,0
20.07.2019 03:00:00 19,3 17,3 21 11 37 20 WSW 1011,8 - 0,0
20.07.2019 02:00:00 19,2 17,0 21 12 34 19 SW 1012,0 - 0,0
20.07.2019 01:00:00 19,3 16,5 21 11 35 19 SSW 1012,3 - 0,0
20.07.2019 00:00:00 19,3 16,7 19 10 26 14 SW 1012,8 - 0,0
19.07.2019 23:00:00 19,5 17,1 12 6 27 15 SW 1012,9 - 0,0
19.07.2019 22:00:00 19,7 16,7 16 9 25 14 SW 1012,9 - 0,0
19.07.2019 21:00:00 19,7 16,7 16 8 26 14 SSW 1013,1 - 0,0
19.07.2019 20:00:00 20,1 16,7 16 8 26 14 SW 1013,4 - 0,0
19.07.2019 19:00:00 20,7 16,5 16 9 29 16 SSW 1013,9 - 0,0
19.07.2019 18:00:00 21,1 16,9 21 11 27 15 SSW 1014,3 - 0,0
19.07.2019 17:00:00 20,6 16,6 22 12 29 16 S 1014,8 - 0,0
19.07.2019 16:00:00 21,7 16,6 22 12 27 15 S 1015,3 - 0,0
19.07.2019 15:00:00 21,2 16,8 21 11 28 15 S 1015,5 - 0,0
19.07.2019 14:00:00 20,8 16,4 21 11 26 14 SSW 1015,9 25 0,0
19.07.2019 13:00:00 20,2 16,2 17 9 24 13 SW 1016,0 - 0,0
19.07.2019 12:00:00 20,1 16,1 17 9 25 14 SSW 1016,2 - 0,0
19.07.2019 11:00:00 19,8 15,9 20 11 27 14 SSW 1016,2 - 0,0
19.07.2019 10:00:00 19,7 15,3 19 11 30 16 SW 1016,4 - 0,0
19.07.2019 09:00:00 19,3 15,4 17 9 28 15 SSW 1016,3 - 0,0
19.07.2019 08:00:00 18,8 14,9 17 9 29 16 SW 1016,2 25 0,0
19.07.2019 07:00:00 18,3 14,6 17 9 29 16 SW 1016,3 - 0,0
19.07.2019 06:00:00 18,3 14,6 17 9 29 16 WSW 1016,2 - 0,0
19.07.2019 05:00:00 18,2 14,1 19 10 29 16 WSW 1016,5 - 0,0
19.07.2019 04:00:00 18,1 13,8 18 10 29 16 WSW 1016,7 - 0,0
19.07.2019 03:00:00 17,9 14,0 11 6 26 14 W 1017,0 - 0,0
19.07.2019 02:00:00 17,9 14,0 16 9 31 17 W 1017,3 - 0,0
19.07.2019 01:00:00 17,8 13,5 17 9 40 22 W 1017,4 - 0,0
19.07.2019 00:00:00 18,1 13,2 22 12 37 20 W 1017,3 - 0,0
18.07.2019 23:00:00 18,0 13,1 22 12 36 19 W 1017,1 - 0,0
18.07.2019 22:00:00 18,2 13,5 22 12 43 23 W 1016,6 - 0,0
18.07.2019 21:00:00 19,3 14,5 24 13 42 23 W 1016,5 - 0,0
18.07.2019 20:00:00 20,2 15,2 24 13 36 19 W 1016,2 25 0,0
18.07.2019 19:00:00 20,5 15,1 23 12 39 21 W 1016,2 - 0,0
18.07.2019 18:00:00 21,0 15,3 23 12 42 23 W 1016,1 - 0,0
18.07.2019 17:00:00 21,3 16,7 21 12 31 17 W 1016,0 25 0,0
18.07.2019 16:00:00 21,2 17,0 16 9 31 17 W 1016,0 - 0,0
18.07.2019 15:00:00 20,9 17,1 13 7 30 16 W 1016,1 - 0,0
18.07.2019 14:00:00 20,0 16,8 19 10 28 15 WSW 1016,0 - 0,2
18.07.2019 13:00:00 18,7 17,7 14 8 36 19 WSW 1015,9 - 0,0
18.07.2019 12:00:00 18,3 17,3 24 13 46 25 W 1016,0 6 0,0
18.07.2019 11:00:00 19,1 17,2 25 14 44 24 WSW 1015,6 - 0,0
18.07.2019 10:00:00 19,1 16,5 24 13 40 21 WSW 1015,7 - 0,0
18.07.2019 09:00:00 19,0 16,4 27 15 42 23 WSW 1015,8 - 0,0
18.07.2019 08:00:00 19,0 15,9 21 11 35 19 WSW 1015,5 20 0,0
18.07.2019 07:00:00 18,8 15,7 24 13 42 23 WSW 1015,3 - 0,0
18.07.2019 06:00:00 18,7 15,6 27 15 41 22 WSW 1015,4 - 0,0
18.07.2019 05:00:00 18,6 14,3 21 11 37 20 WSW 1015,7 - 0,0
18.07.2019 04:00:00 18,0 14,1 26 14 39 21 W 1016,0 - 0,0
18.07.2019 03:00:00 18,1 14,2 19 11 37 20 W 1016,5 - 0,0
18.07.2019 02:00:00 18,2 14,3 23 12 40 22 W 1016,9 - 0,0
18.07.2019 01:00:00 17,9 13,8 16 9 35 19 W 1017,1 - 0,0
18.07.2019 00:00:00 17,9 14,0 19 10 40 22 W 1016,9 - 0,0
17.07.2019 23:00:00 18,0 13,9 24 13 51 28 WNW 1016,7 - 0,0
17.07.2019 22:00:00 18,3 13,8 23 12 46 25 WNW 1016,4 - 0,0
17.07.2019 21:00:00 18,8 14,3 25 13 55 30 WNW 1016,1 - 0,0
17.07.2019 20:00:00 19,5 14,5 30 16 56 30 W 1015,7 25 0,0
17.07.2019 19:00:00 20,3 14,4 28 15 56 30 W 1015,9 - 0,0
17.07.2019 18:00:00 20,4 15,0 33 18 55 30 W 1016,0 - 0,0
17.07.2019 17:00:00 20,8 14,7 29 16 54 29 W 1016,2 25 0,0
17.07.2019 16:00:00 21,0 14,6 27 15 46 25 W 1016,3 - 0,0
17.07.2019 15:00:00 21,3 14,5 22 12 39 21 W 1016,7 25 0,0
17.07.2019 14:00:00 20,8 15,3 22 12 37 20 W 1017,0 - 0,0
17.07.2019 13:00:00 20,6 15,2 17 9 34 18 W 1017,1 - 0,0
17.07.2019 12:00:00 20,5 15,5 14 8 30 16 W 1017,3 - 0,0
17.07.2019 11:00:00 19,7 14,9 16 9 34 18 WNW 1017,4 25 0,0
17.07.2019 10:00:00 19,2 15,5 11 6 21 12 WNW 1017,3 - 0,0
17.07.2019 09:00:00 19,7 13,8 6 4 13 7 NNW 1017,2 - 0,0
17.07.2019 08:00:00 17,6 13,3 11 6 16 8 N 1016,9 25 0,0
17.07.2019 07:00:00 16,2 12,7 13 7 15 8 N 1016,7 - 0,0
17.07.2019 06:00:00 16,3 12,8 11 6 16 9 NNW 1016,8 - 0,0
17.07.2019 05:00:00 15,3 12,4 13 7 18 10 N 1016,7 - 0,0
17.07.2019 04:00:00 16,6 12,7 15 8 18 10 N 1017,2 - 0,0
17.07.2019 03:00:00 17,7 13,6 15 8 27 15 NW 1017,5 - 0,0
17.07.2019 02:00:00 18,6 16,0 16 9 26 14 NW 1017,7 - 0,0
17.07.2019 01:00:00 18,6 16,2 19 10 26 14 NW 1017,8 - 0,0
17.07.2019 00:00:00 18,5 15,2 16 9 24 13 NW 1018,2 - 0,0
16.07.2019 23:00:00 19,0 15,1 19 10 29 16 NW 1018,3 - 0,0
16.07.2019 22:00:00 19,2 15,5 18 10 32 18 WNW 1018,2 - 0,0
16.07.2019 21:00:00 20,4 16,8 20 11 32 17 WNW 1018,2 - 0,0
16.07.2019 20:00:00 21,7 16,2 18 10 32 17 WNW 1018,1 25 0,0
16.07.2019 19:00:00 22,7 16,9 12 7 23 12 W 1018,1 - 0,0
16.07.2019 18:00:00 23,4 16,2 11 6 24 13 W 1018,4 - 0,0

tt = Température de l'air
td = dewpoint
ff = Vitesse du vent
fx = gusts
dd = Direction du vent
ppp = reduced air pressure
vv = visibility
rr = Quantités de précipitations

stations d'obs. à proximité